Theta_e
333 329 319 315 303 300 295 298 300 302 303 308 311 310 309 313 312 303 329 336 340 341 343 344 346 345 342 343 342 343 345 344 343 342 340 338 336 335 334 335 336 336 337 338 339 339 338 335 333
330 323 315 308 298 294 295 300 301 303 308 312 310 309 310 309 321 324 327 339 341 342 342 343 344 346 343 342 341 342 345 344 343 340 339 337 335 334 333 333 334 336 336 336 337 339 337 334 332
324 319 310 303 297 294 296 300 301 305 310 306 308 313 311 313 321 327 332 340 341 341 342 342 344 345 342 342 341 343 343 342 340 339 338 336 334 333 332 333 334 335 334 334 334 337 338 334 331
315 313 308 300 296 298 301 303 304 307 307 312 312 309 314 322 325 329 338 340 339 340 340 341 344 344 342 340 341 342 343 341 341 340 338 336 335 333 332 332 331 332 331 332 332 333 338 335 332
314 307 300 297 297 300 301 304 307 305 305 308 310 309 310 325 328 336 337 337 336 337 338 340 343 344 343 341 340 341 341 340 339 342 339 337 336 335 333 331 330 330 329 328 331 331 331 334 333
308 305 297 295 298 302 303 306 306 306 308 311 312 311 311 325 328 333 335 335 338 337 338 339 336 339 341 341 341 341 342 341 340 342 341 339 338 336 334 332 332 331 330 329 330 329 330 330 331
305 302 298 297 299 301 305 307 305 307 307 307 314 309 312 320 328 332 334 334 335 337 337 336 336 335 334 336 338 339 340 340 341 343 342 340 339 339 337 336 335 332 331 331 330 330 329 329 330
306 303 297 297 299 300 306 307 309 308 306 314 316 309 310 321 328 329 332 332 331 333 334 333 334 334 332 331 331 333 335 337 337 337 334 334 335 336 335 332 335 334 333 332 332 332 330 328 328
306 299 296 298 300 302 306 305 308 310 311 314 316 315 317 325 326 326 325 326 327 331 331 331 332 332 332 331 330 327 329 331 332 331 328 326 328 331 330 328 331 336 336 335 335 335 333 331 328
301 298 299 301 301 303 305 305 308 309 309 309 313 320 322 324 323 323 324 325 325 327 329 330 330 330 330 333 330 327 328 328 328 328 325 325 326 328 330 325 327 331 332 334 336 335 332 327 322
300 297 301 302 303 305 304 303 305 306 304 310 313 318 321 321 321 322 323 325 327 328 327 330 329 330 329 329 328 326 326 325 325 325 324 323 324 323 325 324 324 323 322 324 327 328 327 323 321
299 301 302 305 305 304 303 303 302 303 307 312 315 322 321 321 321 322 323 324 325 326 328 329 329 329 328 329 328 327 326 325 324 324 324 322 320 319 319 321 322 321 321 319 320 320 321 322 322
300 302 304 304 304 303 305 301 301 302 304 309 316 320 320 321 322 323 324 325 325 324 327 328 328 329 329 328 328 326 326 326 325 324 324 323 321 320 319 319 319 320 320 319 318 317 318 318 319
302 303 303 303 303 303 301 300 302 304 305 310 315 317 319 320 321 321 321 322 322 324 324 327 328 329 329 329 328 328 326 327 325 324 325 324 323 322 320 319 319 318 318 319 318 318 317 317 318
304 298 300 299 301 301 303 298 300 303 304 306 307 311 313 316 318 320 322 322 323 323 324 324 327 329 328 327 327 328 328 327 326 326 325 325 325 323 323 322 320 320 319 319 318 317 317 316 317
298 297 292 298 301 302 301 292 300 303 302 304 304 303 303 305 307 309 313 316 316 315 318 319 322 326 327 328 328 327 328 328 328 327 326 326 326 325 323 324 323 322 321 319 317 316 316 316 317
295 288 291 295 301 300 298 294 300 302 302 302 301 302 303 303 305 306 308 309 308 309 308 307 308 309 310 314 323 326 327 326 328 327 327 326 326 327 326 327 327 326 325 323 322 321 319 318 318
290 290 292 292 295 296 295 295 300 300 299 300 299 299 300 301 304 306 307 307 305 305 306 307 308 309 310 310 309 309 316 323 324 325 326 328 328 327 328 329 328 327 325 324 324 323 321 321 320
294 291 291 292 296 293 293 293 297 300 299 299 299 299 299 301 304 305 304 303 303 304 305 306 307 307 309 308 308 307 309 314 319 323 325 326 329 329 328 329 328 327 326 326 325 324 322 321 321
293 290 289 293 296 293 293 292 296 297 298 300 302 300 300 300 302 303 302 302 302 302 303 304 304 304 305 306 308 309 309 312 317 321 322 324 325 326 328 327 327 328 326 325 325 324 322 322 322
292 291 289 290 294 294 290 289 291 296 297 299 300 302 302 302 303 301 300 300 299 300 301 301 301 301 301 302 306 310 312 312 315 321 316 314 318 318 322 326 327 325 327 326 326 325 323 321 321
290 296 295 293 290 284 288 280 286 290 293 295 298 300 302 303 303 300 300 298 298 299 299 299 299 298 299 300 304 307 310 310 313 313 310 307 309 309 312 314 316 317 318 319 320 323 323 322 319
291 296 295 293 289 285 285 282 283 288 288 292 295 297 297 298 300 299 299 299 297 297 296 295 295 294 293 294 297 303 305 310 309 304 303 301 301 303 304 305 307 308 311 313 313 313 314 316 317
296 294 292 290 288 279 285 283 281 286 290 292 294 295 296 296 297 297 296 296 295 293 292 292 292 291 291 291 293 296 301 304 304 303 299 296 296 298 299 300 301 303 305 306 306 305 305 306 307
293 288 278 279 278 277 283 284 286 290 292 293 294 295 294 294 295 294 294 292 292 291 290 291 291 289 289 289 289 291 292 297 299 298 298 296 295 295 295 296 297 297 298 299 300 299 299 300 301
291 290 281 276 277 277 282 280 285 291 294 294 295 295 295 295 294 293 292 292 291 291 290 289 289 288 287 287 287 288 289 290 291 292 292 294 294 293 293 292 292 293 293 293 293 293 292 292 292
290 288 291 282 273 275 279 282 287 290 290 290 292 293 294 295 294 293 293 292 290 289 289 288 288 287 286 286 285 285 286 286 286 286 288 289 290 290 289 288 287 288 289 289 289 289 289 289 289
291 294 286 285 277 268 276 278 281 286 289 290 291 292 292 293 293 292 292 291 290 290 289 287 287 287 285 284 284 284 284 284 284 285 285 285 286 286 286 285 286 286 287 287 287 287 288 288 287
289 288 289 288 283 276 272 277 284 287 288 289 290 292 293 293 293 292 291 290 289 288 287 286 286 286 284 283 283 283 283 283 283 283 283 283 284 284 284 284 284 284 285 285 286 286 286 285 284
293 290 290 283 276 280 280 282 288 287 288 289 290 292 292 293 293 292 291 289 287 287 286 286 285 285 284 283 283 282 282 281 281 281 281 282 282 283 283 283 283 283 284 284 284 284 284 283 282
Wind_Speed
7 4 3 5 5 6 2 0 1 2 3 4 3 7 8 4 1 3 3 7 10 11 8 11 11 12 11 9 6 6 12 13 12 10 9 8 7 6 5 6 7 8 8 9 8 7 9 10 10
4 3 5 3 6 4 3 2 4 2 5 7 6 3 6 2 2 3 3 6 11 10 6 7 10 11 12 10 6 7 10 11 10 9 8 8 8 7 6 6 6 8 7 7 7 4 8 8 7
1 1 5 5 4 4 5 3 4 3 8 2 4 5 2 0 2 6 4 11 10 9 7 7 10 11 12 11 9 9 11 10 9 9 9 9 8 8 6 6 8 6 7 5 5 5 10 7 5
2 4 5 6 4 2 7 6 4 7 3 5 4 6 2 2 5 5 11 11 10 8 7 9 10 11 11 11 11 9 14 11 11 12 11 10 9 8 8 7 5 4 4 5 3 4 4 3 5
4 3 5 5 2 2 1 4 7 4 3 3 1 3 1 4 3 10 9 8 10 6 6 7 11 10 11 12 12 11 11 11 11 12 12 11 11 10 9 8 7 6 4 3 3 1 1 2 3
5 3 6 4 2 2 1 6 4 3 2 4 6 4 1 2 5 6 7 7 7 9 7 6 8 9 9 10 11 11 10 10 9 10 12 11 11 11 11 10 9 8 6 6 4 3 3 1 2
6 4 4 6 6 3 4 6 6 7 5 1 8 5 0 2 5 7 6 5 4 6 6 5 5 6 7 7 8 8 9 9 7 9 9 10 9 10 11 10 10 10 9 8 7 6 6 6 5
5 5 4 2 5 4 5 4 6 5 3 5 3 5 4 6 7 6 5 5 4 4 5 6 5 5 5 4 6 6 6 7 7 7 6 6 7 9 9 9 10 10 10 10 10 9 8 8 8
3 5 2 5 6 5 3 5 2 2 6 3 2 5 3 9 9 6 3 2 2 3 5 5 6 6 6 6 6 7 7 7 7 6 7 6 4 5 7 6 8 10 10 10 10 10 10 8 8
6 4 4 2 4 5 3 3 8 5 3 3 3 4 5 8 7 8 7 7 6 6 6 6 6 6 5 4 5 5 5 4 4 5 6 4 5 4 5 6 9 9 10 10 10 11 10 7 3
2 3 1 1 1 5 5 3 1 9 2 7 10 9 9 6 7 8 7 8 11 8 4 7 7 6 6 5 4 3 3 3 3 6 6 5 4 4 3 3 3 4 5 4 5 5 4 5 4
4 0 1 1 3 3 4 1 3 3 6 7 10 14 10 11 12 12 12 10 7 8 9 7 7 6 7 4 4 4 4 4 4 5 6 4 3 4 4 3 4 4 3 5 4 3 4 5 5
2 1 2 3 5 3 4 3 1 5 1 2 9 8 9 9 11 9 11 9 7 8 9 9 7 8 7 7 5 5 6 6 7 6 6 5 5 5 4 5 4 4 3 4 4 4 4 5 5
2 1 2 2 2 2 2 0 2 4 2 5 9 10 9 10 12 6 7 10 9 9 9 8 9 10 7 8 7 6 5 7 5 6 7 8 6 6 5 5 5 4 4 4 4 5 5 5 4
2 2 3 1 3 3 4 3 9 3 3 5 7 7 8 11 8 12 12 11 12 11 9 9 8 5 7 7 6 5 6 5 6 7 8 9 8 7 7 6 5 6 5 6 4 4 4 4 3
3 5 1 3 6 4 7 7 13 5 5 9 9 9 8 11 11 10 9 10 8 5 7 5 5 7 8 8 6 5 6 5 7 6 6 9 9 9 7 6 6 6 5 5 4 4 4 4 4
5 4 4 7 7 4 5 7 9 5 7 10 9 9 10 9 8 10 9 9 5 5 5 5 4 3 1 2 4 5 6 5 6 4 5 7 8 9 9 8 7 7 5 6 6 5 5 4 5
6 5 5 6 2 4 3 8 12 4 5 11 9 9 8 8 13 9 9 6 5 5 5 5 4 4 2 2 2 3 3 4 4 5 6 8 7 9 9 8 7 6 5 5 5 6 5 6 4
4 3 6 3 2 1 6 7 14 11 5 9 10 9 8 10 7 7 4 5 5 3 4 4 5 2 2 2 2 2 3 3 3 5 8 9 8 8 8 7 7 6 6 8 8 5 7 5 4
2 3 3 4 5 1 6 9 10 10 7 9 13 11 11 6 6 7 7 6 4 3 3 3 3 2 1 1 2 3 3 4 4 3 2 3 4 5 5 5 4 5 4 6 6 8 4 5 5
4 8 4 4 4 3 5 14 7 10 6 8 9 13 10 13 14 8 8 8 6 6 5 4 3 2 1 1 2 3 3 3 2 1 2 4 4 3 2 3 4 4 4 5 5 5 8 6 3
9 5 5 2 3 6 2 14 9 5 10 7 11 15 16 17 13 6 9 8 8 6 4 4 3 3 3 3 1 2 2 2 1 2 3 4 6 5 4 3 3 3 0 2 1 2 4 4 5
5 6 8 6 4 2 4 6 6 2 7 10 14 15 11 9 9 9 11 9 6 7 6 4 4 4 3 4 2 1 1 1 3 3 5 5 5 6 5 5 4 3 2 3 2 2 3 1 2
6 4 4 3 3 7 9 7 6 6 9 6 5 9 11 9 7 6 6 7 6 5 5 4 4 2 3 3 4 3 4 3 3 4 3 3 3 3 5 5 4 3 3 3 3 3 5 4 4
4 7 0 1 4 8 3 9 13 7 9 8 10 11 8 4 5 6 9 8 7 6 5 4 5 3 2 2 3 4 4 3 4 3 3 4 2 1 3 3 3 2 4 3 4 5 5 4 4
10 11 5 7 6 4 1 10 7 6 9 9 7 8 6 5 5 6 6 6 7 7 6 5 5 3 3 3 3 3 3 2 2 2 2 2 2 2 3 4 5 5 5 4 5 4 4 5 5
5 14 7 4 3 3 5 8 9 8 10 9 8 6 9 6 6 6 5 5 6 6 7 7 6 5 5 4 3 3 3 4 4 3 3 3 3 4 5 5 5 5 5 5 5 4 5 6 6
7 7 5 2 2 5 6 6 10 8 7 9 7 8 8 5 4 5 6 6 5 6 5 6 6 7 5 4 3 2 3 3 4 4 4 4 4 4 5 5 5 5 5 5 5 5 5 7 5
4 6 4 2 6 5 3 7 8 9 7 8 8 7 8 8 8 7 7 7 7 6 6 6 6 6 5 4 4 5 4 4 4 4 4 4 4 5 5 5 5 5 5 5 5 6 6 8 7
13 11 15 8 6 4 6 19 3 5 6 5 5 7 8 6 7 8 8 7 6 6 6 7 6 6 6 6 6 6 5 5 5 5 4 4 5 5 5 5 5 5 5 5 5 6 5 7 8
Wind_Direction
318 331 116 53 60 65 28 123 278 163 57 345 43 103 121 65 101 195 338 163 132 144 159 148 151 145 141 138 130 120 154 144 137 134 131 126 116 105 100 99 100 103 95 83 73 100 97 96 92
307 149 52 88 84 78 281 273 158 145 140 138 84 72 44 76 115 127 101 147 140 142 144 143 159 149 145 147 144 151 147 140 136 138 141 139 137 124 130 127 136 121 105 85 63 86 117 110 103
196 26 88 91 106 149 171 208 199 120 163 118 89 62 101 352 30 161 148 143 143 147 154 158 159 152 150 155 158 161 156 150 151 156 156 155 145 138 130 118 145 141 123 94 66 46 133 130 103
33 9 40 81 110 220 161 183 203 137 150 67 108 70 10 270 164 183 146 146 146 155 160 163 161 160 160 164 168 164 163 165 173 176 166 166 161 161 155 155 142 112 121 130 93 60 110 135 122
28 52 60 82 79 113 113 168 157 115 101 63 71 123 23 2 91 133 144 151 154 160 165 165 164 164 168 174 178 175 176 177 189 196 170 174 174 173 176 177 177 171 153 172 131 128 58 38 151
38 84 70 120 122 85 88 157 128 90 102 153 81 92 286 81 113 162 147 163 173 160 169 171 173 174 175 182 186 189 189 191 207 205 178 182 187 186 188 188 190 194 193 186 191 201 205 231 293
101 72 149 136 155 136 167 155 135 133 139 109 145 101 283 255 179 163 154 148 181 152 156 167 169 187 190 195 199 198 202 200 210 191 189 195 200 199 200 199 204 208 207 207 207 210 215 222 229
96 87 106 171 167 175 174 117 149 119 119 128 126 167 192 213 160 138 128 157 175 172 173 180 182 183 192 206 218 219 220 219 210 199 202 214 219 213 214 210 210 216 214 216 216 216 222 229 236
95 63 139 164 154 176 193 128 187 69 111 69 45 151 218 140 123 114 119 138 197 227 217 202 187 189 194 197 210 218 221 221 220 219 220 223 229 232 229 222 223 228 230 227 228 221 224 228 241
70 87 196 182 178 172 173 135 145 112 123 57 58 50 103 122 147 160 172 195 205 218 222 206 202 199 196 208 206 210 220 220 218 217 224 225 230 231 220 223 226 232 235 235 234 231 228 235 245
97 138 259 13 147 144 133 112 106 129 210 199 178 168 155 151 167 179 203 199 208 214 212 207 205 202 192 203 201 199 203 216 223 223 216 221 227 235 233 238 246 241 251 252 256 247 232 229 232
107 41 357 40 10 85 108 113 86 228 221 188 176 163 166 172 185 190 201 214 212 211 222 214 208 202 204 199 199 199 196 208 218 221 214 207 219 230 234 230 232 226 225 234 234 238 247 249 243
91 250 30 39 27 66 93 66 169 254 316 140 140 160 185 191 203 206 206 210 210 221 228 222 200 208 209 206 212 204 209 207 217 212 212 201 208 217 215 229 227 224 219 220 231 230 238 246 243
333 312 40 323 319 6 111 138 32 252 65 94 151 186 198 204 212 225 219 223 212 224 229 220 208 210 201 211 208 213 206 217 210 214 216 207 209 211 208 220 226 227 209 219 219 221 232 241 234
322 320 21 161 227 247 122 311 245 155 124 185 207 219 222 226 220 224 224 223 217 220 223 217 219 193 199 210 214 207 214 206 219 222 214 210 205 210 212 215 215 221 208 218 221 239 239 247 247
106 42 91 268 149 256 132 253 255 176 166 231 237 235 238 246 233 241 242 230 227 211 211 196 192 202 212 213 217 218 222 217 226 222 217 215 214 210 212 221 221 213 201 197 208 219 239 238 241
10 166 197 294 211 128 174 250 264 226 193 236 231 244 249 258 264 249 250 240 238 209 165 133 114 99 28 265 243 235 236 222 232 219 215 216 214 212 218 224 226 206 211 209 211 211 210 220 226
176 194 215 220 280 179 202 252 270 274 216 240 249 249 252 256 249 241 248 214 145 131 137 133 113 62 8 311 278 264 257 248 231 227 224 217 213 211 219 223 216 190 205 215 210 217 202 228 222
176 158 182 237 225 226 238 245 263 271 204 253 256 252 249 246 270 225 181 146 143 135 137 130 130 73 53 21 331 326 277 285 249 223 228 221 220 216 208 215 207 191 204 217 212 215 219 231 197
189 197 225 294 288 110 290 259 259 271 235 221 241 252 244 245 248 230 175 171 201 166 152 136 124 133 154 188 224 224 234 258 256 273 259 217 212 223 220 223 199 188 209 224 212 216 218 230 180
210 212 162 209 350 285 322 275 234 255 230 227 233 238 237 231 240 212 193 192 172 188 185 157 157 138 100 330 286 271 237 252 245 197 59 28 58 58 122 187 189 203 210 231 215 211 219 232 195
230 178 157 171 79 251 119 284 247 242 258 220 236 243 241 242 249 197 195 183 185 186 174 164 145 73 42 355 294 250 252 260 99 54 83 59 46 47 39 52 52 73 45 133 237 226 203 198 228
216 161 179 164 184 307 195 286 266 242 260 263 247 246 250 245 231 220 199 188 171 157 170 163 104 73 35 21 360 301 58 2 87 80 89 69 47 41 38 52 51 71 65 66 91 107 106 168 164
152 104 69 70 138 261 192 192 206 203 223 256 256 256 248 257 244 200 145 129 157 162 155 139 124 86 54 51 41 78 122 129 118 128 108 84 64 42 37 46 54 49 60 73 72 58 64 79 86
126 114 21 257 218 237 299 199 256 297 277 238 254 261 280 270 206 184 167 167 170 174 164 160 165 142 95 84 68 65 80 107 132 143 151 147 133 61 50 60 70 39 73 58 70 70 64 58 84
190 189 178 205 208 251 86 230 257 241 277 282 283 292 281 234 216 200 183 171 175 181 184 174 174 161 157 134 102 77 80 97 90 120 119 113 112 86 67 62 61 58 67 68 69 77 77 74 77
187 208 187 100 14 39 236 293 289 269 278 288 300 288 276 262 201 197 185 194 195 193 195 188 184 183 187 159 128 106 115 132 139 100 90 104 104 109 93 83 79 64 68 70 75 80 81 76 70
177 150 188 154 229 278 263 265 239 303 268 263 279 291 303 289 237 212 200 200 209 212 207 199 199 198 188 153 146 135 133 129 129 128 129 126 111 103 104 95 85 80 79 82 92 94 86 97 86
154 207 226 190 173 202 272 255 218 231 256 248 283 275 278 257 227 211 211 212 211 206 208 214 204 192 184 178 169 159 159 141 131 125 122 115 111 111 101 98 92 85 86 84 87 84 84 88 87
221 220 202 200 238 250 263 263 187 223 228 171 260 289 293 263 240 221 218 210 211 219 212 215 211 202 194 186 179 181 173 163 149 141 135 133 123 112 116 110 104 100 93 98 100 105 97 103 98